FW7691 Weather Reports


time (UTC)temp
C
wind
direction
speed
KPH
gust
KPH
rain 1hr
cm
rain 24hr
cm
rain mn
cm
humidity
%
barometer
mb
20260503184639 16 258 4.8 4.8 0.00 0.00 0.00 45 1011.3
20260503184136 16 230 8.0 9.7 0.00 0.00 0.00 43 1011.5
20260503183632 16 283 6.4 9.7 0.00 0.00 0.00 48 1011.5
20260503183130 16 272 4.8 4.8 0.00 0.00 0.00 45 1011.6
20260503182628 16 258 4.8 8.0 0.00 0.00 0.00 46 1011.8
20260503182126 16 238 6.4 9.7 0.00 0.00 0.00 48 1011.8
20260503181623 16 281 11.3 16.1 0.00 0.00 0.00 44 1011.8
20260503181119 16 271 11.3 14.5 0.00 0.00 0.00 45 1011.8
20260503180616 16 259 4.8 8.0 0.00 0.00 0.00 47 1011.9
20260503180114 15 251 4.8 4.8 0.00 0.00 0.00 46 1011.9
20260503175611 16 313 8.0 14.5 0.00 0.00 0.00 44 1012.1
20260503175108 16 281 4.8 9.7 0.00 0.00 0.00 47 1012.2
20260503174605 16 272 4.8 8.0 0.00 0.00 0.00 48 1012.2
20260503174102 16 4 8.0 12.9 0.00 0.00 0.00 48 1012.3
20260503173556 16 259 6.4 9.7 0.00 0.00 0.00 47 1012.5
20260503173053 16 328 6.4 11.3 0.00 0.00 0.00 46 1012.5
20260503172550 16 337 8.0 14.5 0.00 0.00 0.00 47 1012.5
20260503172048 15 303 4.8 8.0 0.00 0.00 0.00 47 1012.9
20260503171544 15 287 9.7 17.7 0.00 0.00 0.00 48 1012.7
20260503171042 15 275 3.2 4.8 0.00 0.00 0.00 47 1012.7
20260503170538 15 14 4.8 11.3 0.00 0.00 0.00 48 1012.7
20260503150930 11 251 4.8 8.0 0.00 0.00 0.00 54 1014.1
20260503150427 10 257 3.2 4.8 0.00 0.00 0.00 54 1014.1
20260503131320 10 288 6.4 8.0 0.00 0.00 0.00 55 1014.5
20260503130818 10 266 3.2 3.2 0.00 0.00 0.00 56 1014.3
20260503130315 10 258 3.2 4.8 0.00 0.00 0.00 56 1014.5
20260503110708 4 291 3.2 3.2 0.00 0.00 0.00 70 1014.3
20260503110206 4 265 1.6 1.6 0.00 0.00 0.00 70 1014.3
20260503100132 3 255 3.2 3.2 0.00 0.00 0.00 72 1014.2
20260503081521 1 289 0.0 0.0 0.00 0.00 0.00 74 1015.2
20260503081019 1 289 0.0 0.0 0.00 0.00 0.00 74 1015.1
20260503080515 1 289 0.0 0.0 0.00 0.00 0.00 75 1015.3
20260503072449 0 289 0.0 0.0 0.00 0.00 0.00 86 1015.3
20260503071945 0 289 0.0 0.0 0.00 0.00 0.00 87 1015.2
20260503071442 0 289 0.0 0.0 0.00 0.00 0.00 87 1015.3
20260503070938 0 289 0.0 0.0 0.00 0.00 0.00 87 1015.3
20260503070436 0 289 0.0 0.0 0.00 0.00 0.00 88 1015.5
20260503054849 0 289 0.0 0.0 0.00 0.00 0.00 83 1016.1
20260503054345 0 289 0.0 0.0 0.00 0.00 0.00 84 1016.2
20260503053843 0 289 0.0 0.0 0.00 0.00 0.00 84 1016.2
20260503053341 0 289 0.0 0.0 0.00 0.00 0.00 85 1016.3
20260503052837 0 289 0.0 0.0 0.00 0.00 0.00 86 1016.3
20260503052334 0 289 0.0 0.0 0.00 0.00 0.00 86 1016.2
20260503051830 0 289 0.0 0.0 0.00 0.00 0.00 87 1016.3
20260503051327 0 289 0.0 0.0 0.00 0.00 0.00 87 1016.4
20260503050824 0 289 0.0 0.0 0.00 0.00 0.00 87 1016.4
20260503050320 0 289 0.0 0.0 0.00 0.00 0.00 88 1016.3
20260503045818 0 289 0.0 0.0 0.00 0.00 0.00 87 1016.2
20260503045315 0 289 0.0 0.0 0.00 0.00 0.00 87 1016.5
20260503044811 0 289 0.0 0.0 0.00 0.00 0.00 87 1016.4
20260503044309 0 289 0.0 0.0 0.00 0.00 0.00 87 1016.5
20260503043806 0 289 0.0 0.0 0.00 0.00 0.00 87 1016.5
20260503043303 0 289 0.0 0.0 0.00 0.00 0.00 87 1016.4
20260503042758 0 289 0.0 0.0 0.00 0.00 0.00 85 1016.5
20260503042255 0 289 0.0 0.0 0.00 0.00 0.00 85 1016.4
20260503041751 0 289 0.0 0.0 0.00 0.00 0.00 84 1016.5
20260503041249 0 289 0.0 0.0 0.00 0.00 0.00 83 1016.6
20260503040747 0 289 0.0 0.0 0.00 0.00 0.00 81 1016.5
20260503040244 0 289 0.0 0.0 0.00 0.00 0.00 81 1016.6
20260503035741 0 289 0.0 0.0 0.00 0.00 0.00 80 1016.6
20260503035238 0 289 0.0 0.0 0.00 0.00 0.00 79 1016.6
20260503034735 0 289 0.0 0.0 0.00 0.00 0.00 79 1016.6
20260503034232 1 289 0.0 0.0 0.00 0.00 0.00 80 1016.7
20260503033730 1 289 0.0 0.0 0.00 0.00 0.00 80 1016.8
20260503033227 1 289 0.0 0.0 0.00 0.00 0.00 82 1016.8
20260503032725 1 289 0.0 0.0 0.00 0.00 0.00 82 1016.7
20260503032224 1 289 0.0 0.0 0.00 0.00 0.00 82 1016.7
20260503031720 1 289 0.0 0.0 0.00 0.00 0.00 83 1016.6
20260503031218 1 289 0.0 0.0 0.00 0.00 0.00 81 1016.9
20260503030714 1 289 0.0 0.0 0.00 0.00 0.00 81 1016.7
20260503030211 1 289 0.0 0.0 0.00 0.00 0.00 79 1016.6
20260503025708 1 289 0.0 0.0 0.00 0.00 0.00 78 1016.8
20260503025205 1 289 0.0 0.0 0.00 0.00 0.00 75 1016.8
20260503024701 1 289 0.0 0.0 0.00 0.00 0.00 73 1016.7
20260503024159 1 289 0.0 0.0 0.00 0.00 0.00 74 1016.8
20260503023656 2 289 0.0 0.0 0.00 0.00 0.00 69 1016.8
20260503023152 2 289 0.0 0.0 0.00 0.00 0.00 69 1016.9
20260503022649 2 289 0.0 0.0 0.00 0.00 0.00 68 1016.9
20260503022148 2 289 0.0 0.0 0.00 0.00 0.00 68 1017.0
20260503021645 2 289 0.0 0.0 0.00 0.00 0.00 67 1016.7
20260503021142 2 289 0.0 0.0 0.00 0.00 0.00 67 1016.9
20260503020639 2 289 0.0 0.0 0.00 0.00 0.00 64 1016.6
20260503020137 2 289 0.0 0.0 0.00 0.00 0.00 64 1016.7
20260503015633 3 289 0.0 0.0 0.00 0.00 0.00 66 1016.9
20260503015130 3 289 0.0 0.0 0.00 0.00 0.00 63 1016.9
20260503014626 3 289 0.0 0.0 0.00 0.00 0.00 62 1016.8
20260503014124 3 289 0.0 0.0 0.00 0.00 0.00 65 1016.8
20260503013621 3 289 0.0 0.0 0.00 0.00 0.00 66 1016.7
20260503013119 3 289 0.0 0.0 0.00 0.00 0.00 63 1016.6
20260503012616 3 289 0.0 0.0 0.00 0.00 0.00 62 1016.3
20260503012113 3 289 0.0 0.0 0.00 0.00 0.00 59 1016.4
20260503011609 4 289 0.0 0.0 0.00 0.00 0.00 60 1016.5
20260503011107 5 289 0.0 0.0 0.00 0.00 0.00 59 1016.4
20260503010602 5 289 0.0 0.0 0.00 0.00 0.00 56 1016.3
20260503010100 5 289 0.0 0.0 0.00 0.00 0.00 56 1016.5
20260503005557 6 289 0.0 0.0 0.00 0.00 0.00 55 1016.4
20260503005054 6 289 0.0 1.6 0.00 0.00 0.00 49 1016.4
20260503004550 6 264 0.0 1.6 0.00 0.00 0.00 48 1016.5
20260503004049 7 276 0.0 0.0 0.00 0.00 0.00 48 1016.4
20260503003545 7 281 0.0 0.0 0.00 0.00 0.00 46 1016.2
20260503003042 7 280 3.2 3.2 0.00 0.00 0.00 45 1016.3
20260503002539 7 286 3.2 3.2 0.00 0.00 0.00 45 1016.3
20260503002036 7 282 3.2 3.2 0.00 0.00 0.00 45 1016.2
20260503001532 7 296 3.2 3.2 0.00 0.00 0.00 44 1016.4
20260503001030 7 344 4.8 4.8 0.00 0.00 0.00 43 1016.2
20260503000527 8 305 3.2 4.8 0.00 0.00 0.00 43 1016.1
20260503000024 8 266 3.2 3.2 0.00 0.00 0.00 43 1016.3
20260502235520 8 309 4.8 8.0 0.00 0.00 0.00 42 1016.3
20260502235019 8 317 4.8 4.8 0.00 0.00 0.00 42 1016.3
20260502234514 8 346 11.3 12.9 0.00 0.00 0.00 42 1016.3
20260502234013 8 289 1.6 1.6 0.00 0.00 0.00 42 1016.3
20260502233512 8 295 0.0 0.0 0.00 0.00 0.00 43 1016.1
20260502233010 8 350 6.4 11.3 0.00 0.00 0.00 42 1016.1
20260502232506 8 325 4.8 4.8 0.00 0.00 0.00 42 1016.3
20260502232003 8 313 4.8 8.0 0.00 0.00 0.00 43 1016.4
20260502231500 8 272 1.6 3.2 0.00 0.00 0.00 43 1016.3
20260502230958 9 11 3.2 4.8 0.00 0.00 0.00 43 1016.4
20260502230456 10 313 4.8 4.8 0.00 0.00 0.00 40 1016.3
20260502225954 10 320 4.8 4.8 0.00 0.00 0.00 41 1016.4
20260502225449 11 296 3.2 4.8 0.00 0.00 0.00 41 1016.2
20260502224946 11 249 0.0 1.6 0.00 0.00 0.00 42 1016.2
20260502224443 11 68 1.6 1.6 0.00 0.00 0.00 40 1016.2
20260502223939 10 73 0.0 0.0 0.00 0.00 0.00 42 1016.2
20260502223437 10 0 4.8 9.7 0.00 0.00 0.00 41 1016.4
20260502222935 10 318 3.2 4.8 0.00 0.00 0.00 41 1016.4
20260502222433 8 293 3.2 3.2 0.00 0.00 0.00 46 1016.3
20260502221928 8 270 1.6 3.2 0.00 0.00 0.00 44 1016.4
20260502221425 8 354 3.2 4.8 0.00 0.00 0.00 45 1016.4
20260502220922 9 6 6.4 9.7 0.00 0.00 0.00 44 1016.4
20260502220418 8 274 4.8 4.8 0.00 0.00 0.00 45 1016.3
20260502215914 8 13 4.8 4.8 0.00 0.00 0.00 43 1016.3
20260502215412 8 45 3.2 3.2 0.00 0.00 0.00 44 1016.3
20260502214909 8 275 3.2 3.2 0.00 0.00 0.00 45 1016.3
20260502214405 9 301 9.7 12.9 0.00 0.00 0.00 43 1016.5
20260502213903 10 274 4.8 4.8 0.00 0.00 0.00 45 1016.6
20260502213359 10 255 0.0 3.2 0.00 0.00 0.00 45 1016.5
20260502212859 9 267 4.8 4.8 0.00 0.00 0.00 44 1016.3
20260502212356 8 311 3.2 4.8 0.00 0.00 0.00 46 1016.4
20260502211853 8 322 3.2 3.2 0.00 0.00 0.00 45 1016.5
20260502211349 8 6 4.8 4.8 0.00 0.00 0.00 43 1016.5
20260502210847 9 307 6.4 8.0 0.00 0.00 0.00 45 1016.4
20260502210343 10 334 4.8 4.8 0.00 0.00 0.00 46 1016.7
20260502205841 8 163 1.6 1.6 0.00 0.00 0.00 49 1016.6
20260502205337 8 67 6.4 8.0 0.00 0.00 0.00 46 1016.7
20260502204834 8 289 1.6 3.2 0.00 0.00 0.00 49 1016.6
20260502204331 8 57 1.6 1.6 0.00 0.00 0.00 45 1016.8
20260502203828 8 159 1.6 1.6 0.00 0.00 0.00 47 1016.6
20260502203326 8 330 1.6 1.6 0.00 0.00 0.00 50 1016.7
20260502202826 7 317 6.4 9.7 0.00 0.00 0.00 49 1016.9
20260502202324 8 328 3.2 3.2 0.00 0.00 0.00 50 1017.0
20260502201822 8 297 4.8 8.0 0.00 0.00 0.00 48 1016.9
20260502201318 8 319 4.8 4.8 0.00 0.00 0.00 47 1016.9
20260502200814 8 278 1.6 1.6 0.00 0.00 0.00 48 1017.3
20260502200310 8 56 3.2 3.2 0.00 0.00 0.00 47 1017.3
20260502195808 7 261 1.6 3.2 0.00 0.00 0.00 47 1017.4
20260502195305 8 330 8.0 11.3 0.00 0.00 0.00 47 1017.2
20260502194801 8 128 3.2 3.2 0.00 0.00 0.00 47 1017.3
20260502194258 8 153 1.6 3.2 0.00 0.00 0.00 47 1017.2
20260502193754 8 261 3.2 4.8 0.00 0.00 0.00 46 1017.3
20260502193252 8 3 9.7 11.3 0.00 0.00 0.00 44 1017.6
20260502192751 8 297 1.6 3.2 0.00 0.00 0.00 47 1017.6
20260502192249 8 58 4.8 4.8 0.00 0.00 0.00 48 1017.7
20260502191746 8 275 4.8 4.8 0.00 0.00 0.00 46 1017.4
20260502191244 8 319 1.6 3.2 0.00 0.00 0.00 48 1017.6
20260502190741 8 267 3.2 8.0 0.00 0.00 0.00 46 1017.7
20260502190239 7 324 8.0 8.0 0.00 0.00 0.00 47 1017.7
20260502185738 7 299 4.8 4.8 0.00 0.00 0.00 46 1018.1
20260502185235 7 92 6.4 9.7 0.00 0.00 0.00 46 1017.8